Time,TemperatureF,DewpointF,PressureIn,WindDirection,WindDirectionDegrees,WindSpeedMPH,WindSpeedGustMPH,Humidity,HourlyPrecipIn,Conditions,Clouds,dailyrainin,SolarRadiationWatts/m^2,SoftwareType,DateUTC
2013-07-17 00:04:00,67.2,57.5,29.97,West,272,2.3,2.3,71,0.00,CLR,,0.00,0.0,WeatherDisplay:10.37,2013-07-17 07:04:00,
2013-07-17 00:09:00,67.1,57.4,29.97,West,272,1.2,1.2,71,0.00,CLR,,0.00,0.0,WeatherDisplay:10.37,2013-07-17 07:09:00,
2013-07-17 00:14:00,67.0,57.7,29.97,West,272,2.3,2.3,72,0.00,CLR,,0.00,0.0,WeatherDisplay:10.37,2013-07-17 07:14:00,
2013-07-17 00:19:00,66.9,58.0,29.97,West,272,2.3,2.3,73,0.00,CLR,,0.00,0.0,WeatherDisplay:10.37,2013-07-17 07:19:00,
2013-07-17 00:24:00,66.8,57.9,29.97,West,272,1.2,1.2,73,0.00,CLR,,0.00,0.0,WeatherDisplay:10.37,2013-07-17 07:24:00,
2013-07-17 00:29:00,66.8,57.9,29.97,West,272,1.2,1.2,73,0.00,CLR,,0.00,0.0,WeatherDisplay:10.37,2013-07-17 07:29:00,
2013-07-17 00:34:00,66.7,57.8,29.97,West,272,0.0,0.0,73,0.00,CLR,,0.00,0.0,WeatherDisplay:10.37,2013-07-17 07:34:00,
2013-07-17 00:39:00,66.6,57.7,29.97,West,272,1.0,1.0,73,0.00,CLR,,0.00,0.0,WeatherDisplay:10.37,2013-07-17 07:39:00,
2013-07-17 00:44:00,66.4,57.9,29.97,West,272,1.2,1.2,74,0.00,CLR,,0.00,0.0,WeatherDisplay:10.37,2013-07-17 07:44:00,
2013-07-17 00:49:00,66.1,57.2,29.97,West,272,1.2,1.2,73,0.00,CLR,,0.00,0.0,WeatherDisplay:10.37,2013-07-17 07:49:00,
2013-07-17 00:54:00,66.0,57.5,29.97,West,272,1.2,0.0,74,0.00,CLR,,0.00,0.0,WeatherDisplay:10.37,2013-07-17 07:54:00,
2013-07-17 00:59:00,65.9,57.4,29.97,West,272,3.0,3.0,74,0.00,CLR,,0.00,0.0,WeatherDisplay:10.37,2013-07-17 07:59:00,
2013-07-17 01:04:00,65.8,57.3,29.97,West,272,3.5,3.5,74,0.00,CLR,,0.00,0.0,WeatherDisplay:10.37,2013-07-17 08:04:00,
2013-07-17 01:09:00,65.8,57.3,29.97,West,272,3.5,3.5,74,0.00,CLR,,0.00,0.0,WeatherDisplay:10.37,2013-07-17 08:09:00,
2013-07-17 01:14:00,65.6,57.1,29.98,West,272,1.2,1.2,74,0.00,CLR,,0.00,0.0,WeatherDisplay:10.37,2013-07-17 08:14:00,
2013-07-17 01:19:00,65.5,57.0,29.98,West,272,2.3,2.3,74,0.00,CLR,,0.00,0.0,WeatherDisplay:10.37,2013-07-17 08:19:00,
2013-07-17 01:24:00,65.4,57.3,29.97,West,272,1.2,1.2,75,0.00,CLR,,0.00,0.0,WeatherDisplay:10.37,2013-07-17 08:24:00,
2013-07-17 01:29:00,65.3,57.2,29.97,West,272,1.2,1.2,75,0.00,CLR,,0.00,0.0,WeatherDisplay:10.37,2013-07-17 08:29:00,
2013-07-17 01:34:00,65.3,57.2,29.97,West,272,1.2,1.2,75,0.00,CLR,,0.00,0.0,WeatherDisplay:10.37,2013-07-17 08:34:00,
2013-07-17 01:39:00,65.2,57.1,29.97,West,272,2.3,2.3,75,0.00,CLR,,0.00,0.0,WeatherDisplay:10.37,2013-07-17 08:39:00,
2013-07-17 01:44:00,65.2,57.1,29.97,West,272,1.2,0.0,75,0.00,CLR,,0.00,0.0,WeatherDisplay:10.37,2013-07-17 08:44:00,
2013-07-17 01:49:00,65.2,57.1,29.97,West,272,1.2,1.2,75,0.00,CLR,,0.00,0.0,WeatherDisplay:10.37,2013-07-17 08:49:00,
2013-07-17 01:54:00,65.1,57.0,29.97,West,272,2.0,2.0,75,0.00,CLR,,0.00,0.0,WeatherDisplay:10.37,2013-07-17 08:54:00,
2013-07-17 01:59:00,65.2,56.7,29.97,West,272,1.2,1.2,74,0.00,CLR,,0.00,0.0,WeatherDisplay:10.37,2013-07-17 08:59:00,
2013-07-17 02:04:00,65.1,56.6,29.97,West,272,1.0,1.0,74,0.00,CLR,,0.00,0.0,WeatherDisplay:10.37,2013-07-17 09:04:00,
2013-07-17 02:09:00,64.9,56.4,29.97,West,272,0.0,0.0,74,0.00,CLR,,0.00,0.0,WeatherDisplay:10.37,2013-07-17 09:09:00,
2013-07-17 02:14:00,64.6,56.5,29.97,West,272,1.2,1.2,75,0.00,CLR,,0.00,0.0,WeatherDisplay:10.37,2013-07-17 09:14:00,
2013-07-17 02:19:00,64.3,56.2,29.96,West,272,0.0,0.0,75,0.00,CLR,,0.00,0.0,WeatherDisplay:10.37,2013-07-17 09:19:00,
2013-07-17 02:24:00,64.0,55.5,29.96,West,272,0.0,0.0,74,0.00,CLR,,0.00,0.0,WeatherDisplay:10.37,2013-07-17 09:24:00,
2013-07-17 02:29:00,63.7,55.3,29.96,West,272,0.0,0.0,74,0.00,CLR,,0.00,0.0,WeatherDisplay:10.37,2013-07-17 09:29:00,
2013-07-17 02:34:00,63.4,55.0,29.96,West,272,0.0,0.0,74,0.00,CLR,,0.00,0.0,WeatherDisplay:10.37,2013-07-17 09:34:00,
2013-07-17 02:39:00,63.1,54.7,29.96,West,272,0.0,0.0,74,0.00,CLR,,0.00,0.0,WeatherDisplay:10.37,2013-07-17 09:39:00,
2013-07-17 02:44:00,62.9,54.5,29.96,West,272,0.0,0.0,74,0.00,CLR,,0.00,0.0,WeatherDisplay:10.37,2013-07-17 09:44:00,
2013-07-17 02:49:00,62.7,54.7,29.97,West,272,0.0,0.0,75,0.00,CLR,,0.00,0.0,WeatherDisplay:10.37,2013-07-17 09:49:00,
2013-07-17 02:54:00,62.5,54.5,29.96,West,272,0.0,0.0,75,0.00,CLR,,0.00,0.0,WeatherDisplay:10.37,2013-07-17 09:54:00,
2013-07-17 02:59:00,62.4,54.4,29.96,West,272,1.2,0.0,75,0.00,CLR,,0.00,0.0,WeatherDisplay:10.37,2013-07-17 09:59:00,
2013-07-17 03:04:00,62.5,54.5,29.96,West,272,1.2,1.2,75,0.00,CLR,,0.00,0.0,WeatherDisplay:10.37,2013-07-17 10:04:00,
2013-07-17 03:09:00,62.5,54.5,29.96,West,272,0.0,0.0,75,0.00,CLR,,0.00,0.0,WeatherDisplay:10.37,2013-07-17 10:09:00,
2013-07-17 03:14:00,62.4,54.0,29.96,West,272,0.0,0.0,74,0.00,CLR,,0.00,0.0,WeatherDisplay:10.37,2013-07-17 10:14:00,
2013-07-17 03:19:00,62.3,54.3,29.96,West,272,0.0,0.0,75,0.00,CLR,,0.00,0.0,WeatherDisplay:10.37,2013-07-17 10:19:00,
2013-07-17 03:24:00,62.1,54.1,29.96,West,272,0.0,0.0,75,0.00,CLR,,0.00,0.0,WeatherDisplay:10.37,2013-07-17 10:24:00,
2013-07-17 03:29:00,62.0,54.0,29.96,West,272,0.0,0.0,75,0.00,CLR,,0.00,0.0,WeatherDisplay:10.37,2013-07-17 10:29:00,
2013-07-17 03:34:00,61.8,53.8,29.96,West,272,0.0,0.0,75,0.00,CLR,,0.00,0.0,WeatherDisplay:10.37,2013-07-17 10:34:00,
2013-07-17 03:39:00,61.7,53.7,29.96,West,272,0.0,0.0,75,0.00,CLR,,0.00,0.0,WeatherDisplay:10.37,2013-07-17 10:39:00,
2013-07-17 03:44:00,61.6,54.0,29.96,West,272,0.0,0.0,76,0.00,CLR,,0.00,0.0,WeatherDisplay:10.37,2013-07-17 10:44:00,
2013-07-17 03:49:00,61.4,53.8,29.96,West,272,0.0,0.0,76,0.00,CLR,,0.00,0.0,WeatherDisplay:10.37,2013-07-17 10:49:00,
2013-07-17 03:54:00,61.3,53.7,29.96,West,272,0.0,0.0,76,0.00,CLR,,0.00,0.0,WeatherDisplay:10.37,2013-07-17 10:54:00,
2013-07-17 03:59:00,61.2,53.6,29.96,West,272,0.0,0.0,76,0.00,CLR,,0.00,0.0,WeatherDisplay:10.37,2013-07-17 10:59:00,
2013-07-17 04:04:00,61.1,53.5,29.96,West,272,0.0,0.0,76,0.00,CLR,,0.00,0.0,WeatherDisplay:10.37,2013-07-17 11:04:00,
2013-07-17 04:09:00,60.9,53.3,29.96,West,272,0.0,0.0,76,0.00,CLR,,0.00,0.0,WeatherDisplay:10.37,2013-07-17 11:09:00,
2013-07-17 04:15:00,60.8,53.2,29.96,West,272,0.0,0.0,76,0.00,CLR,,0.00,0.0,WeatherDisplay:10.37,2013-07-17 11:15:00,
2013-07-17 04:20:00,60.7,53.4,29.96,West,272,0.0,0.0,77,0.00,CLR,,0.00,0.0,WeatherDisplay:10.37,2013-07-17 11:20:00,
2013-07-17 04:25:00,60.7,53.4,29.96,West,272,0.0,0.0,77,0.00,CLR,,0.00,0.0,WeatherDisplay:10.37,2013-07-17 11:25:00,
2013-07-17 04:30:00,60.8,53.2,29.96,West,272,0.0,0.0,76,0.00,CLR,,0.00,0.0,WeatherDisplay:10.37,2013-07-17 11:30:00,
2013-07-17 04:35:00,60.8,53.2,29.96,West,272,0.0,0.0,76,0.00,CLR,,0.00,0.0,WeatherDisplay:10.37,2013-07-17 11:35:00,
2013-07-17 04:40:00,60.8,53.2,29.96,West,272,0.0,0.0,76,0.00,CLR,,0.00,0.0,WeatherDisplay:10.37,2013-07-17 11:40:00,
2013-07-17 04:45:00,60.8,53.2,29.96,West,272,1.2,1.2,76,0.00,CLR,,0.00,0.0,WeatherDisplay:10.37,2013-07-17 11:45:00,
2013-07-17 04:50:00,60.8,53.2,29.96,West,272,0.0,0.0,76,0.00,CLR,,0.00,0.0,WeatherDisplay:10.37,2013-07-17 11:50:00,
2013-07-17 04:55:00,60.9,53.3,29.96,West,272,0.0,0.0,76,0.00,CLR,,0.00,0.0,WeatherDisplay:10.37,2013-07-17 11:55:00,
2013-07-17 05:00:00,60.7,53.1,29.96,West,272,0.0,0.0,76,0.00,CLR,,0.00,0.0,WeatherDisplay:10.37,2013-07-17 12:00:00,
2013-07-17 05:05:00,60.5,52.9,29.97,West,272,1.2,1.2,76,0.00,CLR,,0.00,0.0,WeatherDisplay:10.37,2013-07-17 12:05:00,
2013-07-17 05:10:00,60.3,52.7,29.97,West,272,0.0,0.0,76,0.00,CLR,,0.00,0.0,WeatherDisplay:10.37,2013-07-17 12:10:00,
2013-07-17 05:15:00,60.1,52.5,29.97,West,272,0.0,0.0,76,0.00,CLR,,0.00,0.0,WeatherDisplay:10.37,2013-07-17 12:15:00,
2013-07-17 05:20:00,60.0,52.4,29.97,West,272,0.0,0.0,76,0.00,CLR,,0.00,0.0,WeatherDisplay:10.37,2013-07-17 12:20:00,
2013-07-17 05:25:00,59.8,52.6,29.97,West,272,0.0,0.0,77,0.00,CLR,,0.00,0.0,WeatherDisplay:10.37,2013-07-17 12:25:00,
2013-07-17 05:30:00,59.7,52.5,29.97,West,272,0.0,0.0,77,0.00,CLR,,0.00,0.0,WeatherDisplay:10.37,2013-07-17 12:30:00,
2013-07-17 05:35:00,59.6,52.4,29.97,West,272,0.0,0.0,77,0.00,CLR,,0.00,0.0,WeatherDisplay:10.37,2013-07-17 12:35:00,
2013-07-17 05:40:00,59.6,52.4,29.97,West,272,1.2,0.0,77,0.00,CLR,,0.00,0.0,WeatherDisplay:10.37,2013-07-17 12:40:00,
2013-07-17 05:45:00,59.5,52.3,29.98,West,272,0.0,0.0,77,0.00,CLR,,0.00,0.0,WeatherDisplay:10.37,2013-07-17 12:45:00,
2013-07-17 05:50:00,59.6,52.7,29.98,West,272,0.0,0.0,78,0.00,CLR,,0.00,0.0,WeatherDisplay:10.37,2013-07-17 12:50:00,
2013-07-17 05:55:00,59.5,52.3,29.98,West,272,0.0,0.0,77,0.00,CLR,,0.00,0.0,WeatherDisplay:10.37,2013-07-17 12:55:00,
2013-07-17 06:00:00,59.5,52.3,29.98,West,272,1.2,1.2,77,0.00,BKN,,0.00,5.0,WeatherDisplay:10.37,2013-07-17 13:00:00,
2013-07-17 06:05:00,59.5,52.3,29.98,West,272,1.2,0.0,77,0.00,BKN,,0.00,7.0,WeatherDisplay:10.37,2013-07-17 13:05:00,
2013-07-17 06:10:00,59.5,52.6,29.98,West,272,0.0,0.0,78,0.00,BKN,,0.00,9.0,WeatherDisplay:10.37,2013-07-17 13:10:00,
2013-07-17 06:15:00,59.5,52.6,29.98,West,272,0.0,0.0,78,0.00,BKN,,0.00,11.0,WeatherDisplay:10.37,2013-07-17 13:15:00,
2013-07-17 06:20:00,59.7,52.8,29.98,West,272,0.0,0.0,78,0.00,BKN,,0.00,16.0,WeatherDisplay:10.37,2013-07-17 13:20:00,
2013-07-17 06:25:00,59.9,53.0,29.98,West,272,0.0,0.0,78,0.00,BKN,,0.00,25.0,WeatherDisplay:10.37,2013-07-17 13:25:00,
2013-07-17 06:30:00,60.3,53.4,29.98,West,272,0.0,0.0,78,0.00,BKN,,0.00,25.0,WeatherDisplay:10.37,2013-07-17 13:30:00,
2013-07-17 06:35:00,60.6,53.3,29.99,West,272,0.0,0.0,77,0.00,BKN,,0.00,32.0,WeatherDisplay:10.37,2013-07-17 13:35:00,
2013-07-17 06:40:00,61.0,53.7,29.99,West,272,0.0,0.0,77,0.00,BKN,,0.00,37.0,WeatherDisplay:10.37,2013-07-17 13:40:00,
2013-07-17 06:45:00,61.4,54.1,29.99,West,272,1.2,1.2,77,0.00,BKN,,0.00,53.0,WeatherDisplay:10.37,2013-07-17 13:45:00,
2013-07-17 06:50:00,61.9,54.2,29.99,West,272,0.0,0.0,76,0.00,SCT,,0.00,84.0,WeatherDisplay:10.37,2013-07-17 13:50:00,
2013-07-17 06:55:00,62.6,54.9,29.99,West,272,0.0,0.0,76,0.00,SCT,,0.00,98.0,WeatherDisplay:10.37,2013-07-17 13:55:00,
2013-07-17 07:00:00,63.1,54.7,29.99,West,272,0.0,0.0,74,0.00,SCT,,0.00,116.0,WeatherDisplay:10.37,2013-07-17 14:00:00,
2013-07-17 07:05:00,63.7,55.3,29.99,West,272,0.0,0.0,74,0.00,SCT,,0.00,134.0,WeatherDisplay:10.37,2013-07-17 14:05:00,
2013-07-17 07:10:00,64.6,56.1,30.00,West,272,0.0,0.0,74,0.00,SCT,,0.00,148.0,WeatherDisplay:10.37,2013-07-17 14:10:00,
2013-07-17 07:15:00,65.7,56.4,30.00,West,272,0.0,0.0,72,0.00,FEW,,0.00,167.0,WeatherDisplay:10.37,2013-07-17 14:15:00,
2013-07-17 07:20:00,66.6,56.9,30.00,West,272,0.0,0.0,71,0.00,FEW,,0.00,185.0,WeatherDisplay:10.37,2013-07-17 14:20:00,
2013-07-17 07:26:00,66.9,56.4,30.00,West,272,1.2,1.2,69,0.00,FEW,,0.00,200.0,WeatherDisplay:10.37,2013-07-17 14:26:00,
2013-07-17 07:31:00,67.0,56.9,30.00,West,272,0.0,0.0,70,0.00,FEW,,0.00,218.0,WeatherDisplay:10.37,2013-07-17 14:31:00,
2013-07-17 07:36:00,67.0,57.3,30.00,West,272,2.3,2.3,71,0.00,FEW,,0.00,236.0,WeatherDisplay:10.37,2013-07-17 14:36:00,
2013-07-17 07:41:00,67.0,57.3,30.00,West,272,3.5,3.5,71,0.00,FEW,,0.00,248.0,WeatherDisplay:10.37,2013-07-17 14:41:00,
2013-07-17 07:46:00,67.1,57.4,30.00,West,276,3.5,3.5,71,0.00,FEW,,0.00,262.0,WeatherDisplay:10.37,2013-07-17 14:46:00,
2013-07-17 07:51:00,67.3,57.2,30.00,WNW,292,5.8,5.8,70,0.00,FEW,,0.00,279.0,WeatherDisplay:10.37,2013-07-17 14:51:00,
2013-07-17 07:56:00,67.6,57.5,30.00,WNW,292,3.5,3.5,70,0.00,FEW,,0.00,292.0,WeatherDisplay:10.37,2013-07-17 14:56:00,
2013-07-17 08:01:00,68.0,57.4,30.00,WNW,292,4.0,4.0,69,0.00,FEW,,0.00,309.0,WeatherDisplay:10.37,2013-07-17 15:01:00,
2013-07-17 08:06:00,68.1,57.1,30.00,WNW,292,4.0,4.0,68,0.00,FEW,,0.00,325.0,WeatherDisplay:10.37,2013-07-17 15:06:00,
2013-07-17 08:11:00,68.3,57.3,30.00,WNW,293,4.0,4.0,68,0.00,FEW,,0.00,336.0,WeatherDisplay:10.37,2013-07-17 15:11:00,
2013-07-17 08:16:00,68.6,57.2,30.00,WNW,298,3.5,3.5,67,0.00,FEW,,0.00,352.0,WeatherDisplay:10.37,2013-07-17 15:16:00,
2013-07-17 08:21:00,68.9,57.5,30.00,WNW,288,2.0,2.0,67,0.00,FEW,,0.00,367.0,WeatherDisplay:10.37,2013-07-17 15:21:00,
2013-07-17 08:26:00,69.4,57.1,30.00,WNW,289,2.0,2.0,65,0.00,FEW,,0.00,383.0,WeatherDisplay:10.37,2013-07-17 15:26:00,
2013-07-17 08:31:00,69.8,57.1,30.00,WNW,289,3.5,3.5,64,0.00,FEW,,0.00,399.0,WeatherDisplay:10.37,2013-07-17 15:31:00,
2013-07-17 08:36:00,70.1,56.9,30.00,WNW,288,4.6,4.6,63,0.00,FEW,,0.00,415.0,WeatherDisplay:10.37,2013-07-17 15:36:00,
2013-07-17 08:41:00,70.3,57.1,30.00,West,274,4.0,4.0,63,0.00,FEW,,0.00,427.0,WeatherDisplay:10.37,2013-07-17 15:41:00,
2013-07-17 08:46:00,70.7,56.6,30.00,West,280,3.5,3.5,61,0.00,FEW,,0.00,441.0,WeatherDisplay:10.37,2013-07-17 15:46:00,
2013-07-17 08:51:00,71.0,56.9,30.00,West,280,0.0,0.0,61,0.00,FEW,,0.00,455.0,WeatherDisplay:10.37,2013-07-17 15:51:00,
2013-07-17 08:56:00,71.5,56.9,30.00,West,277,3.0,3.0,60,0.00,FEW,,0.00,469.0,WeatherDisplay:10.37,2013-07-17 15:56:00,
2013-07-17 09:01:00,71.9,56.8,30.00,WSW,257,3.5,3.5,59,0.00,FEW,,0.00,485.0,WeatherDisplay:10.37,2013-07-17 16:01:00,
2013-07-17 09:06:00,72.2,57.1,30.00,WSW,257,1.0,1.0,59,0.00,FEW,,0.00,501.0,WeatherDisplay:10.37,2013-07-17 16:06:00,
2013-07-17 09:11:00,72.8,56.7,30.00,WSW,257,2.3,2.3,57,0.00,FEW,,0.00,515.0,WeatherDisplay:10.37,2013-07-17 16:11:00,
2013-07-17 09:16:00,73.6,56.9,30.00,WSW,257,3.5,3.5,56,0.00,FEW,,0.00,531.0,WeatherDisplay:10.37,2013-07-17 16:16:00,
2013-07-17 09:21:00,74.0,56.8,30.00,West,271,3.5,3.5,55,0.00,FEW,,0.00,543.0,WeatherDisplay:10.37,2013-07-17 16:21:00,
2013-07-17 09:26:00,74.3,57.1,30.00,West,272,1.2,0.0,55,0.00,FEW,,0.00,559.0,WeatherDisplay:10.37,2013-07-17 16:26:00,
2013-07-17 09:31:00,75.0,57.2,30.00,West,271,4.0,4.0,54,0.00,FEW,,0.00,573.0,WeatherDisplay:10.37,2013-07-17 16:31:00,
2013-07-17 09:36:00,75.2,56.9,30.00,WSW,253,3.5,3.5,53,0.00,FEW,,0.00,585.0,WeatherDisplay:10.37,2013-07-17 16:36:00,
2013-07-17 09:41:00,75.3,56.5,30.00,WSW,252,3.5,3.5,52,0.00,FEW,,0.00,599.0,WeatherDisplay:10.37,2013-07-17 16:41:00,
2013-07-17 09:46:00,75.4,55.5,30.00,WSW,252,2.3,2.3,50,0.00,FEW,,0.00,612.0,WeatherDisplay:10.37,2013-07-17 16:46:00,
2013-07-17 09:51:00,75.7,55.2,30.00,WSW,248,3.5,3.5,49,0.00,FEW,,0.00,626.0,WeatherDisplay:10.37,2013-07-17 16:51:00,
2013-07-17 09:56:00,76.4,55.3,30.00,WSW,248,2.3,0.0,48,0.00,FEW,,0.00,636.0,WeatherDisplay:10.37,2013-07-17 16:56:00,
2013-07-17 10:01:00,77.2,55.4,30.00,West,261,3.5,3.5,47,0.00,FEW,,0.00,649.0,WeatherDisplay:10.37,2013-07-17 17:01:00,
2013-07-17 10:06:00,77.4,56.2,30.00,West,259,3.5,3.5,48,0.00,FEW,,0.00,656.0,WeatherDisplay:10.37,2013-07-17 17:06:00,
2013-07-17 10:11:00,77.6,55.8,30.00,West,259,2.3,2.3,47,0.00,FEW,,0.00,664.0,WeatherDisplay:10.37,2013-07-17 17:11:00,
2013-07-17 10:16:00,78.1,55.6,30.00,WSW,254,4.0,4.0,46,0.00,FEW,,0.00,682.0,WeatherDisplay:10.37,2013-07-17 17:16:00,
2013-07-17 10:21:00,78.4,55.9,30.00,SW,233,3.5,3.5,46,0.00,FEW,,0.00,694.0,WeatherDisplay:10.37,2013-07-17 17:21:00,
2013-07-17 10:26:00,78.8,56.3,29.99,SW,232,3.5,3.5,46,0.00,FEW,,0.00,705.0,WeatherDisplay:10.37,2013-07-17 17:26:00,
2013-07-17 10:31:00,79.2,56.6,29.99,SW,229,5.0,5.0,46,0.00,FEW,,0.00,715.0,WeatherDisplay:10.37,2013-07-17 17:31:00,
2013-07-17 10:36:00,79.5,55.7,30.00,SSW,209,3.5,3.5,44,0.00,FEW,,0.00,731.0,WeatherDisplay:10.37,2013-07-17 17:36:00,
2013-07-17 10:41:00,79.8,54.7,29.99,SSW,210,3.5,3.5,42,0.00,FEW,,0.00,740.0,WeatherDisplay:10.37,2013-07-17 17:41:00,
2013-07-17 10:46:00,80.0,53.5,29.99,SSW,209,6.0,6.0,40,0.00,FEW,,0.00,752.0,WeatherDisplay:10.37,2013-07-17 17:46:00,
2013-07-17 10:51:00,80.3,54.5,29.99,SW,217,3.5,3.5,41,0.00,FEW,,0.00,754.0,WeatherDisplay:10.37,2013-07-17 17:51:00,
2013-07-17 10:56:00,80.6,53.4,29.99,WSW,255,4.0,4.0,39,0.00,FEW,,0.00,768.0,WeatherDisplay:10.37,2013-07-17 17:56:00,
2013-07-17 11:01:00,81.2,52.4,29.99,WSW,255,3.5,3.5,37,0.00,FEW,,0.00,779.0,WeatherDisplay:10.37,2013-07-17 18:01:00,
2013-07-17 11:06:00,81.9,53.8,29.99,WSW,250,2.3,2.3,38,0.00,FEW,,0.00,786.0,WeatherDisplay:10.37,2013-07-17 18:06:00,
2013-07-17 11:11:00,82.4,54.2,29.99,SSW,194,6.0,6.0,38,0.00,FEW,,0.00,793.0,WeatherDisplay:10.37,2013-07-17 18:11:00,
2013-07-17 11:16:00,82.5,52.1,29.99,SSW,194,4.6,4.6,35,0.00,FEW,,0.00,803.0,WeatherDisplay:10.37,2013-07-17 18:16:00,
2013-07-17 11:21:00,82.6,51.4,29.99,WSW,251,6.0,6.0,34,0.00,FEW,,0.00,810.0,WeatherDisplay:10.37,2013-07-17 18:21:00,
2013-07-17 11:26:00,82.7,51.5,29.98,West,263,4.0,4.0,34,0.00,FEW,,0.00,816.0,WeatherDisplay:10.37,2013-07-17 18:26:00,
2013-07-17 11:31:00,83.6,50.6,29.98,WNW,286,5.8,5.8,32,0.00,FEW,,0.00,826.0,WeatherDisplay:10.37,2013-07-17 18:31:00,
2013-07-17 11:36:00,83.9,52.5,29.98,West,262,3.5,3.5,34,0.00,FEW,,0.00,828.0,WeatherDisplay:10.37,2013-07-17 18:36:00,
2013-07-17 11:41:00,83.7,51.5,29.98,WSW,255,6.9,6.9,33,0.00,FEW,,0.00,837.0,WeatherDisplay:10.37,2013-07-17 18:41:00,
2013-07-17 11:46:00,83.7,50.7,29.98,SSW,200,7.0,7.0,32,0.00,FEW,,0.00,844.0,WeatherDisplay:10.37,2013-07-17 18:46:00,
2013-07-17 11:51:00,84.0,49.2,29.98,WSW,253,8.1,8.1,30,0.00,FEW,,0.00,849.0,WeatherDisplay:10.37,2013-07-17 18:51:00,
2013-07-17 11:56:00,84.6,48.8,29.98,West,275,4.6,4.6,29,0.00,FEW,,0.00,854.0,WeatherDisplay:10.37,2013-07-17 18:56:00,
2013-07-17 12:01:00,84.9,50.0,29.98,West,281,5.8,5.8,30,0.00,FEW,,0.00,847.0,WeatherDisplay:10.37,2013-07-17 19:01:00,
2013-07-17 12:06:00,85.0,48.2,29.98,WNW,296,6.9,6.9,28,0.00,FEW,,0.00,851.0,WeatherDisplay:10.37,2013-07-17 19:06:00,
2013-07-17 12:11:00,85.9,49.0,29.98,SW,225,6.0,6.0,28,0.00,FEW,,0.00,868.0,WeatherDisplay:10.37,2013-07-17 19:11:00,
2013-07-17 12:16:00,86.5,47.5,29.98,West,271,8.1,8.1,26,0.00,FEW,,0.00,865.0,WeatherDisplay:10.37,2013-07-17 19:16:00,
2013-07-17 12:21:00,86.5,49.5,29.99,SSW,202,11.0,11.0,28,0.00,FEW,,0.00,861.0,WeatherDisplay:10.37,2013-07-17 19:21:00,
2013-07-17 12:26:00,86.5,51.4,29.98,WNW,282,6.0,6.0,30,0.00,FEW,,0.00,863.0,WeatherDisplay:10.37,2013-07-17 19:26:00,
2013-07-17 12:31:00,87.0,50.0,29.98,WNW,284,6.9,6.9,28,0.00,FEW,,0.00,870.0,WeatherDisplay:10.37,2013-07-17 19:31:00,
2013-07-17 12:36:00,87.0,50.9,29.98,SSW,209,7.0,7.0,29,0.00,FEW,,0.00,867.0,WeatherDisplay:10.37,2013-07-17 19:36:00,
2013-07-17 12:41:00,87.4,51.2,29.98,SSW,202,8.1,8.1,29,0.00,FEW,,0.00,863.0,WeatherDisplay:10.37,2013-07-17 19:41:00,
2013-07-17 12:46:00,87.8,50.6,29.98,WNW,302,7.0,7.0,28,0.00,FEW,,0.00,868.0,WeatherDisplay:10.37,2013-07-17 19:46:00,
2013-07-17 12:51:00,87.8,51.6,29.98,SW,234,6.9,6.9,29,0.00,FEW,,0.00,872.0,WeatherDisplay:10.37,2013-07-17 19:51:00,
2013-07-17 12:56:00,87.9,51.7,29.98,SSW,213,11.5,11.5,29,0.00,FEW,,0.00,870.0,WeatherDisplay:10.37,2013-07-17 19:56:00,
2013-07-17 13:01:00,88.1,54.5,29.97,WSW,258,8.1,8.1,32,0.00,FEW,,0.00,868.0,WeatherDisplay:10.37,2013-07-17 20:01:00,
2013-07-17 13:06:00,87.7,55.0,29.98,West,267,10.4,10.4,33,0.00,FEW,,0.00,870.0,WeatherDisplay:10.37,2013-07-17 20:06:00,
2013-07-17 13:11:00,87.8,55.1,29.97,WNW,293,11.5,11.5,33,0.00,FEW,,0.00,868.0,WeatherDisplay:10.37,2013-07-17 20:11:00,
2013-07-17 13:16:00,87.6,53.2,29.97,West,262,10.4,10.4,31,0.00,FEW,,0.00,868.0,WeatherDisplay:10.37,2013-07-17 20:16:00,
2013-07-17 13:21:00,88.0,53.6,29.97,SW,228,9.2,9.2,31,0.00,FEW,,0.00,870.0,WeatherDisplay:10.37,2013-07-17 20:21:00,
2013-07-17 13:26:00,88.1,51.8,29.97,WNW,297,11.5,11.5,29,0.00,FEW,,0.00,865.0,WeatherDisplay:10.37,2013-07-17 20:26:00,
2013-07-17 13:31:00,88.6,51.3,29.97,SW,223,6.0,6.0,28,0.00,FEW,,0.00,867.0,WeatherDisplay:10.37,2013-07-17 20:31:00,
2013-07-17 13:36:00,88.6,50.3,29.97,SSW,212,8.1,8.1,27,0.00,FEW,,0.00,865.0,WeatherDisplay:10.37,2013-07-17 20:36:00,
2013-07-17 13:41:00,88.6,50.3,29.97,West,263,9.0,9.0,27,0.00,FEW,,0.00,865.0,WeatherDisplay:10.37,2013-07-17 20:41:00,
2013-07-17 13:46:00,88.4,51.1,29.97,SW,228,11.5,11.5,28,0.00,FEW,,0.00,860.0,WeatherDisplay:10.37,2013-07-17 20:46:00,
2013-07-17 13:51:00,87.8,50.6,29.97,WSW,258,11.5,11.5,28,0.00,FEW,,0.00,856.0,WeatherDisplay:10.37,2013-07-17 20:51:00,
2013-07-17 13:56:00,87.4,51.2,29.97,West,263,8.1,8.1,29,0.00,FEW,,0.00,851.0,WeatherDisplay:10.37,2013-07-17 20:56:00,
2013-07-17 14:01:00,87.2,52.0,29.97,SW,232,10.4,10.4,30,0.00,SCT,,0.00,657.0,WeatherDisplay:10.37,2013-07-17 21:01:00,
2013-07-17 14:06:00,87.5,50.4,29.97,WNW,286,12.0,12.0,28,0.00,SCT,,0.00,775.0,WeatherDisplay:10.37,2013-07-17 21:06:00,
2013-07-17 14:11:00,86.7,52.4,29.97,West,259,10.4,10.4,31,0.00,FEW,,0.00,842.0,WeatherDisplay:10.37,2013-07-17 21:11:00,
2013-07-17 14:16:00,86.3,52.1,29.97,WNW,289,12.7,12.7,31,0.00,FEW,,0.00,830.0,WeatherDisplay:10.37,2013-07-17 21:16:00,
2013-07-17 14:21:00,85.9,50.0,29.97,West,263,11.5,11.5,29,0.00,FEW,,0.00,837.0,WeatherDisplay:10.37,2013-07-17 21:21:00,
2013-07-17 14:26:00,85.7,48.8,29.97,WSW,238,9.2,9.2,28,0.00,FEW,,0.00,828.0,WeatherDisplay:10.37,2013-07-17 21:26:00,
2013-07-17 14:31:00,86.3,50.3,29.97,SW,215,13.8,13.8,29,0.00,FEW,,0.00,826.0,WeatherDisplay:10.37,2013-07-17 21:31:00,
2013-07-17 14:36:00,86.9,48.9,29.96,WNW,292,11.5,11.5,27,0.00,FEW,,0.00,819.0,WeatherDisplay:10.37,2013-07-17 21:36:00,
2013-07-17 14:41:00,86.1,49.2,29.96,WNW,283,12.7,12.7,28,0.00,FEW,,0.00,809.0,WeatherDisplay:10.37,2013-07-17 21:41:00,
2013-07-17 14:46:00,85.9,49.0,29.96,WNW,283,15.0,15.0,28,0.00,FEW,,0.00,796.0,WeatherDisplay:10.37,2013-07-17 21:46:00,
2013-07-17 14:51:00,86.5,47.5,29.96,SSW,213,11.5,11.5,26,0.00,FEW,,0.00,789.0,WeatherDisplay:10.37,2013-07-17 21:51:00,
2013-07-17 14:56:00,86.2,47.3,29.96,WNW,283,11.0,11.0,26,0.00,FEW,,0.00,780.0,WeatherDisplay:10.37,2013-07-17 21:56:00,
2013-07-17 15:01:00,86.0,45.0,29.96,WNW,290,15.0,15.0,24,0.00,FEW,,0.00,773.0,WeatherDisplay:10.37,2013-07-17 22:01:00,
2013-07-17 15:06:00,85.4,45.6,29.96,WSW,252,10.4,10.4,25,0.00,FEW,,0.00,768.0,WeatherDisplay:10.37,2013-07-17 22:06:00,
2013-07-17 15:11:00,85.7,48.8,29.96,WNW,301,9.0,9.0,28,0.00,FEW,,0.00,751.0,WeatherDisplay:10.37,2013-07-17 22:11:00,
2013-07-17 15:16:00,85.1,49.3,29.95,WNW,287,11.5,11.5,29,0.00,FEW,,0.00,744.0,WeatherDisplay:10.37,2013-07-17 22:16:00,
2013-07-17 15:21:00,85.2,48.4,29.95,WSW,256,10.4,10.4,28,0.00,FEW,,0.00,733.0,WeatherDisplay:10.37,2013-07-17 22:21:00,
2013-07-17 15:26:00,84.8,48.1,29.96,West,277,12.0,12.0,28,0.00,FEW,,0.00,724.0,WeatherDisplay:10.37,2013-07-17 22:26:00,
2013-07-17 15:31:00,84.3,49.5,29.96,WNW,286,11.5,11.5,30,0.00,FEW,,0.00,712.0,WeatherDisplay:10.37,2013-07-17 22:31:00,
2013-07-17 15:36:00,84.5,51.4,29.95,WSW,245,11.5,11.5,32,0.00,FEW,,0.00,698.0,WeatherDisplay:10.37,2013-07-17 22:36:00,
2013-07-17 15:41:00,84.3,52.1,29.95,SSW,197,10.4,10.4,33,0.00,FEW,,0.00,687.0,WeatherDisplay:10.37,2013-07-17 22:41:00,
2013-07-17 15:46:00,84.4,53.0,29.95,SW,227,12.7,12.7,34,0.00,FEW,,0.00,679.0,WeatherDisplay:10.37,2013-07-17 22:46:00,
2013-07-17 15:51:00,84.5,52.2,29.95,WNW,296,11.5,11.5,33,0.00,FEW,,0.00,666.0,WeatherDisplay:10.37,2013-07-17 22:51:00,
2013-07-17 15:56:00,83.9,53.3,29.95,WNW,290,14.0,14.0,35,0.00,FEW,,0.00,654.0,WeatherDisplay:10.37,2013-07-17 22:56:00,
2013-07-17 16:01:00,83.7,53.1,29.95,WSW,248,13.8,13.8,35,0.00,FEW,,0.00,643.0,WeatherDisplay:10.37,2013-07-17 23:01:00,
2013-07-17 16:06:00,83.7,52.3,29.95,WSW,244,10.4,10.4,34,0.00,FEW,,0.00,629.0,WeatherDisplay:10.37,2013-07-17 23:06:00,
2013-07-17 16:11:00,83.0,51.7,29.95,West,275,13.0,13.0,34,0.00,FEW,,0.00,621.0,WeatherDisplay:10.37,2013-07-17 23:11:00,
2013-07-17 16:16:00,82.5,53.6,29.95,West,274,9.2,9.2,37,0.00,FEW,,0.00,605.0,WeatherDisplay:10.37,2013-07-17 23:16:00,
2013-07-17 16:21:00,83.1,53.4,29.95,WSW,243,10.0,10.0,36,0.00,FEW,,0.00,591.0,WeatherDisplay:10.37,2013-07-17 23:21:00,
2013-07-17 16:26:00,83.7,52.3,29.95,WSW,244,11.0,11.0,34,0.00,FEW,,0.00,577.0,WeatherDisplay:10.37,2013-07-17 23:26:00,
2013-07-17 16:31:00,83.2,54.2,29.94,West,275,10.0,10.0,37,0.00,FEW,,0.00,564.0,WeatherDisplay:10.37,2013-07-17 23:31:00,
2013-07-17 16:36:00,83.1,52.6,29.94,West,264,13.0,13.0,35,0.00,FEW,,0.00,548.0,WeatherDisplay:10.37,2013-07-17 23:36:00,
2013-07-17 16:41:00,82.4,53.5,29.94,West,259,8.1,8.1,37,0.00,FEW,,0.00,534.0,WeatherDisplay:10.37,2013-07-17 23:41:00,
2013-07-17 16:46:00,82.6,53.7,29.94,SW,232,13.0,13.0,37,0.00,FEW,,0.00,520.0,WeatherDisplay:10.37,2013-07-17 23:46:00,
2013-07-17 16:51:00,82.9,54.7,29.94,West,268,11.5,11.5,38,0.00,FEW,,0.00,504.0,WeatherDisplay:10.37,2013-07-17 23:51:00,
2013-07-17 16:56:00,82.5,53.6,29.94,SSW,211,10.4,10.4,37,0.00,FEW,,0.00,492.0,WeatherDisplay:10.37,2013-07-17 23:56:00,
2013-07-17 17:01:00,82.7,53.8,29.94,WSW,257,13.8,13.8,37,0.00,FEW,,0.00,475.0,WeatherDisplay:10.37,2013-07-18 00:01:00,
2013-07-17 17:07:00,82.4,53.5,29.94,SSW,200,6.9,6.9,37,0.00,FEW,,0.00,464.0,WeatherDisplay:10.37,2013-07-18 00:07:00,
2013-07-17 17:12:00,82.6,53.7,29.94,WNW,282,9.2,9.2,37,0.00,FEW,,0.00,448.0,WeatherDisplay:10.37,2013-07-18 00:12:00,
2013-07-17 17:17:00,82.7,54.5,29.94,West,270,10.4,10.4,38,0.00,FEW,,0.00,432.0,WeatherDisplay:10.37,2013-07-18 00:17:00,
2013-07-17 17:22:00,82.2,54.8,29.93,West,268,12.7,12.7,39,0.00,FEW,,0.00,420.0,WeatherDisplay:10.37,2013-07-18 00:22:00,
2013-07-17 17:27:00,81.7,55.0,29.93,SW,229,9.2,9.2,40,0.00,CLR,,0.00,403.0,WeatherDisplay:10.37,2013-07-18 00:27:00,
2013-07-17 17:32:00,81.4,54.8,29.93,SW,232,13.0,13.0,40,0.00,CLR,,0.00,388.0,WeatherDisplay:10.37,2013-07-18 00:32:00,
2013-07-17 17:37:00,81.1,54.5,29.93,WSW,240,10.0,10.0,40,0.00,FEW,,0.00,373.0,WeatherDisplay:10.37,2013-07-18 00:37:00,
2013-07-17 17:42:00,80.9,55.0,29.93,West,271,10.4,10.4,41,0.00,CLR,,0.00,357.0,WeatherDisplay:10.37,2013-07-18 00:42:00,
2013-07-17 17:47:00,80.8,55.6,29.93,SW,230,10.0,10.0,42,0.00,FEW,,0.00,339.0,WeatherDisplay:10.37,2013-07-18 00:47:00,
2013-07-17 17:52:00,80.8,56.2,29.93,West,277,10.4,10.4,43,0.00,FEW,,0.00,323.0,WeatherDisplay:10.37,2013-07-18 00:52:00,
2013-07-17 17:57:00,80.8,56.2,29.93,West,260,8.0,8.0,43,0.00,FEW,,0.00,309.0,WeatherDisplay:10.37,2013-07-18 00:57:00,
2013-07-17 18:02:00,80.8,56.2,29.93,NW,311,10.4,10.4,43,0.00,CLR,,0.00,294.0,WeatherDisplay:10.37,2013-07-18 01:02:00,
2013-07-17 18:07:00,80.3,55.8,29.93,West,267,9.2,9.2,43,0.00,CLR,,0.00,278.0,WeatherDisplay:10.37,2013-07-18 01:07:00,
2013-07-17 18:12:00,80.2,55.7,29.92,WSW,255,12.0,12.0,43,0.00,CLR,,0.00,262.0,WeatherDisplay:10.37,2013-07-18 01:12:00,
2013-07-17 18:17:00,80.1,56.2,29.93,West,279,9.2,9.2,44,0.00,CLR,,0.00,250.0,WeatherDisplay:10.37,2013-07-18 01:17:00,
2013-07-17 18:22:00,80.2,56.3,29.93,SW,227,8.1,8.1,44,0.00,CLR,,0.00,236.0,WeatherDisplay:10.37,2013-07-18 01:22:00,
2013-07-17 18:27:00,80.0,56.1,29.93,West,273,9.0,9.0,44,0.00,CLR,,0.00,221.0,WeatherDisplay:10.37,2013-07-18 01:27:00,
2013-07-17 18:32:00,79.5,55.7,29.93,West,281,10.4,10.4,44,0.00,FEW,,0.00,209.0,WeatherDisplay:10.37,2013-07-18 01:32:00,
2013-07-17 18:37:00,79.1,55.9,29.93,WSW,250,10.4,10.4,45,0.00,FEW,,0.00,192.0,WeatherDisplay:10.37,2013-07-18 01:37:00,
2013-07-17 18:42:00,78.8,54.4,29.93,West,259,8.1,8.1,43,0.00,FEW,,0.00,176.0,WeatherDisplay:10.37,2013-07-18 01:42:00,
2013-07-17 18:47:00,78.8,54.4,29.93,West,268,8.1,8.1,43,0.00,FEW,,0.00,158.0,WeatherDisplay:10.37,2013-07-18 01:47:00,
2013-07-17 18:52:00,78.5,52.8,29.93,WSW,251,8.1,8.1,41,0.00,FEW,,0.00,141.0,WeatherDisplay:10.37,2013-07-18 01:52:00,
2013-07-17 18:57:00,78.0,52.4,29.93,West,263,10.4,10.4,41,0.00,FEW,,0.00,123.0,WeatherDisplay:10.37,2013-07-18 01:57:00,
2013-07-17 19:02:00,77.8,52.9,29.93,WSW,256,7.0,7.0,42,0.00,SCT,,0.00,107.0,WeatherDisplay:10.37,2013-07-18 02:02:00,
2013-07-17 19:07:00,77.7,52.8,29.93,West,265,7.0,7.0,42,0.00,SCT,,0.00,90.0,WeatherDisplay:10.37,2013-07-18 02:07:00,
2013-07-17 19:12:00,77.5,53.2,29.93,WSW,253,8.1,8.1,43,0.00,SCT,,0.00,77.0,WeatherDisplay:10.37,2013-07-18 02:12:00,
2013-07-17 19:17:00,77.1,53.5,29.94,SSW,213,5.8,5.8,44,0.00,SCT,,0.00,60.0,WeatherDisplay:10.37,2013-07-18 02:17:00,
2013-07-17 19:22:00,77.0,53.4,29.93,West,261,9.2,9.2,44,0.00,SCT,,0.00,49.0,WeatherDisplay:10.37,2013-07-18 02:22:00,
2013-07-17 19:27:00,76.5,53.6,29.94,WSW,253,5.0,5.0,45,0.00,BKN,,0.00,40.0,WeatherDisplay:10.37,2013-07-18 02:27:00,
2013-07-17 19:32:00,76.7,53.8,29.94,WSW,241,3.5,3.5,45,0.00,BKN,,0.00,32.0,WeatherDisplay:10.37,2013-07-18 02:32:00,
2013-07-17 19:37:00,76.7,53.1,29.94,West,263,8.0,8.0,44,0.00,BKN,,0.00,21.0,WeatherDisplay:10.37,2013-07-18 02:37:00,
2013-07-17 19:42:00,76.3,53.4,29.94,WSW,255,3.5,3.5,45,0.00,BKN,,0.00,16.0,WeatherDisplay:10.37,2013-07-18 02:42:00,
2013-07-17 19:47:00,76.1,53.2,29.94,SW,230,3.5,3.5,45,0.00,BKN,,0.00,11.0,WeatherDisplay:10.37,2013-07-18 02:47:00,
2013-07-17 19:52:00,75.7,53.4,29.94,SSW,207,4.6,4.6,46,0.00,BKN,,0.00,9.0,WeatherDisplay:10.37,2013-07-18 02:52:00,
2013-07-17 19:57:00,75.2,53.6,29.94,WSW,242,6.9,6.9,47,0.00,BKN,,0.00,7.0,WeatherDisplay:10.37,2013-07-18 02:57:00,
2013-07-17 20:02:00,74.9,53.3,29.94,SW,219,3.5,3.5,47,0.00,SCT,,0.00,0.0,WeatherDisplay:10.37,2013-07-18 03:02:00,
2013-07-17 20:07:00,74.7,53.7,29.94,SSW,206,4.6,4.6,48,0.00,CLR,,0.00,0.0,WeatherDisplay:10.37,2013-07-18 03:07:00,
2013-07-17 20:12:00,74.4,53.4,29.94,SW,216,4.6,4.6,48,0.00,CLR,,0.00,0.0,WeatherDisplay:10.37,2013-07-18 03:12:00,
2013-07-17 20:17:00,74.0,53.1,29.94,WSW,242,3.5,3.5,48,0.00,CLR,,0.00,0.0,WeatherDisplay:10.37,2013-07-18 03:17:00,
2013-07-17 20:22:00,73.8,52.9,29.94,West,262,5.0,5.0,48,0.00,CLR,,0.00,0.0,WeatherDisplay:10.37,2013-07-18 03:22:00,
2013-07-17 20:27:00,73.7,53.3,29.94,SSW,210,3.5,3.5,49,0.00,CLR,,0.00,0.0,WeatherDisplay:10.37,2013-07-18 03:27:00,
2013-07-17 20:32:00,73.6,53.8,29.94,WSW,250,3.5,3.5,50,0.00,CLR,,0.00,0.0,WeatherDisplay:10.37,2013-07-18 03:32:00,
2013-07-17 20:33:00,73.6,53.8,29.94,SW,236,3.5,3.5,50,0.00,CLR,,0.00,0.0,WeatherDisplay:10.37,2013-07-18 03:33:00,
2013-07-17 20:38:00,73.3,54.1,29.94,WSW,255,4.6,4.6,51,0.00,CLR,,0.00,0.0,WeatherDisplay:10.37,2013-07-18 03:38:00,
2013-07-17 20:43:00,73.1,54.4,29.95,West,261,6.0,6.0,52,0.00,CLR,,0.00,0.0,WeatherDisplay:10.37,2013-07-18 03:43:00,
2013-07-17 20:48:00,72.8,54.7,29.95,WSW,246,5.8,5.8,53,0.00,CLR,,0.00,0.0,WeatherDisplay:10.37,2013-07-18 03:48:00,
2013-07-17 20:53:00,72.6,54.5,29.95,WSW,255,4.6,4.6,53,0.00,CLR,,0.00,0.0,WeatherDisplay:10.37,2013-07-18 03:53:00,
2013-07-17 20:58:00,72.4,54.3,29.95,WSW,255,4.6,4.6,53,0.00,CLR,,0.00,0.0,WeatherDisplay:10.37,2013-07-18 03:58:00,
2013-07-17 21:01:00,72.3,54.7,29.95,WSW,253,5.8,5.8,54,0.00,CLR,,0.00,0.0,WeatherDisplay:10.37,2013-07-18 04:01:00,
2013-07-17 21:02:00,72.3,54.7,29.95,WSW,253,4.6,4.6,54,0.00,CLR,,0.00,0.0,WeatherDisplay:10.37,2013-07-18 04:02:00,
2013-07-17 21:04:00,72.2,55.1,29.95,WSW,237,4.6,4.6,55,0.00,CLR,,0.00,0.0,WeatherDisplay:10.37,2013-07-18 04:04:00,
2013-07-17 21:09:00,71.9,54.9,29.96,SSW,211,4.6,4.6,55,0.00,CLR,,0.00,0.0,WeatherDisplay:10.37,2013-07-18 04:09:00,
2013-07-17 21:14:00,71.6,54.6,29.95,SW,221,5.0,5.0,55,0.00,CLR,,0.00,0.0,WeatherDisplay:10.37,2013-07-18 04:14:00,
2013-07-17 21:19:00,71.3,54.3,29.96,WSW,253,5.8,5.8,55,0.00,CLR,,0.00,0.0,WeatherDisplay:10.37,2013-07-18 04:19:00,
2013-07-17 21:24:00,70.9,53.9,29.96,West,259,6.9,6.9,55,0.00,CLR,,0.00,0.0,WeatherDisplay:10.37,2013-07-18 04:24:00,
2013-07-17 21:29:00,70.8,54.3,29.96,SW,234,4.0,4.0,56,0.00,CLR,,0.00,0.0,WeatherDisplay:10.37,2013-07-18 04:29:00,
2013-07-17 21:34:00,70.5,54.5,29.96,WSW,243,3.5,3.5,57,0.00,CLR,,0.00,0.0,WeatherDisplay:10.37,2013-07-18 04:34:00,
2013-07-17 21:39:00,70.4,54.9,29.96,WSW,242,3.5,3.5,58,0.00,CLR,,0.00,0.0,WeatherDisplay:10.37,2013-07-18 04:39:00,
2013-07-17 21:44:00,70.1,54.6,29.97,West,263,5.8,5.8,58,0.00,CLR,,0.00,0.0,WeatherDisplay:10.37,2013-07-18 04:44:00,
2013-07-17 21:49:00,70.1,55.1,29.97,West,263,4.0,4.0,59,0.00,CLR,,0.00,0.0,WeatherDisplay:10.37,2013-07-18 04:49:00,
2013-07-17 21:54:00,69.9,54.9,29.97,West,259,6.0,6.0,59,0.00,CLR,,0.00,0.0,WeatherDisplay:10.37,2013-07-18 04:54:00,
2013-07-17 21:59:00,69.8,54.8,29.97,WSW,252,6.0,6.0,59,0.00,CLR,,0.00,0.0,WeatherDisplay:10.37,2013-07-18 04:59:00,
2013-07-17 22:04:00,69.7,55.2,29.97,West,268,4.0,4.0,60,0.00,CLR,,0.00,0.0,WeatherDisplay:10.37,2013-07-18 05:04:00,
2013-07-17 22:09:00,69.7,55.2,29.97,West,277,4.6,4.6,60,0.00,CLR,,0.00,0.0,WeatherDisplay:10.37,2013-07-18 05:09:00,
2013-07-17 22:14:00,69.7,55.2,29.97,WNW,290,3.5,3.5,60,0.00,CLR,,0.00,0.0,WeatherDisplay:10.37,2013-07-18 05:14:00,
2013-07-17 22:19:00,69.5,55.5,29.97,West,274,3.5,3.5,61,0.00,CLR,,0.00,0.0,WeatherDisplay:10.37,2013-07-18 05:19:00,
2013-07-17 22:24:00,69.4,55.4,29.97,West,271,5.8,5.8,61,0.00,CLR,,0.00,0.0,WeatherDisplay:10.37,2013-07-18 05:24:00,
2013-07-17 22:29:00,69.4,55.4,29.97,West,267,3.5,3.5,61,0.00,CLR,,0.00,0.0,WeatherDisplay:10.37,2013-07-18 05:29:00,
2013-07-17 22:34:00,69.2,55.6,29.97,West,260,3.5,3.5,62,0.00,CLR,,0.00,0.0,WeatherDisplay:10.37,2013-07-18 05:34:00,
2013-07-17 22:39:00,69.1,55.5,29.97,WSW,256,3.5,3.5,62,0.00,CLR,,0.00,0.0,WeatherDisplay:10.37,2013-07-18 05:39:00,
2013-07-17 22:44:00,69.1,56.0,29.97,WSW,257,5.8,5.8,63,0.00,CLR,,0.00,0.0,WeatherDisplay:10.37,2013-07-18 05:44:00,
2013-07-17 22:49:00,69.0,55.9,29.97,WSW,257,4.6,4.6,63,0.00,CLR,,0.00,0.0,WeatherDisplay:10.37,2013-07-18 05:49:00,
2013-07-17 22:54:00,68.9,56.2,29.97,WSW,257,4.6,4.6,64,0.00,CLR,,0.00,0.0,WeatherDisplay:10.37,2013-07-18 05:54:00,
2013-07-17 22:59:00,68.8,56.6,29.97,West,261,8.1,8.1,65,0.00,CLR,,0.00,0.0,WeatherDisplay:10.37,2013-07-18 05:59:00,
2013-07-17 23:04:00,68.5,56.7,29.97,West,263,6.0,6.0,66,0.00,CLR,,0.00,0.0,WeatherDisplay:10.37,2013-07-18 06:04:00,
2013-07-17 23:09:00,68.4,57.0,29.97,West,263,3.5,3.5,67,0.00,CLR,,0.00,0.0,WeatherDisplay:10.37,2013-07-18 06:09:00,
2013-07-17 23:14:00,68.3,57.3,29.97,West,263,4.6,4.6,68,0.00,CLR,,0.00,0.0,WeatherDisplay:10.37,2013-07-18 06:14:00,
2013-07-17 23:19:00,68.2,57.2,29.97,West,261,3.5,3.5,68,0.00,CLR,,0.00,0.0,WeatherDisplay:10.37,2013-07-18 06:19:00,
2013-07-17 23:24:00,68.1,57.1,29.97,West,261,5.0,5.0,68,0.00,CLR,,0.00,0.0,WeatherDisplay:10.37,2013-07-18 06:24:00,
2013-07-17 23:29:00,68.0,57.4,29.97,West,261,5.0,5.0,69,0.00,CLR,,0.00,0.0,WeatherDisplay:10.37,2013-07-18 06:29:00,
2013-07-17 23:34:00,68.0,57.4,29.97,West,259,4.6,4.6,69,0.00,CLR,,0.00,0.0,WeatherDisplay:10.37,2013-07-18 06:34:00,
2013-07-17 23:39:00,67.9,57.4,29.97,WSW,257,5.8,5.8,69,0.00,CLR,,0.00,0.0,WeatherDisplay:10.37,2013-07-18 06:39:00,
2013-07-17 23:44:00,67.9,57.4,29.97,WSW,257,4.6,4.6,69,0.00,CLR,,0.00,0.0,WeatherDisplay:10.37,2013-07-18 06:44:00,
2013-07-17 23:49:00,67.9,57.4,29.97,WSW,257,3.5,3.5,69,0.00,CLR,,0.00,0.0,WeatherDisplay:10.37,2013-07-18 06:49:00,
2013-07-17 23:54:00,67.7,57.6,29.97,WSW,256,3.5,3.5,70,0.00,CLR,,0.00,0.0,WeatherDisplay:10.37,2013-07-18 06:54:00,
2013-07-17 23:59:00,67.4,57.7,29.96,WSW,254,4.0,4.0,71,0.00,CLR,,0.00,0.0,WeatherDisplay:10.37,2013-07-18 06:59:00,